sat.trackr.live / text

‹ back to catalog

STARLINK-36634

NORAD 67593 · 2026-018E

PAYLOAD ACTIVE UNKNOWN

§ Identity

Operator
Country
US
Launch date
2026-01-29
Launch site
AFWTR
Launch vehicle
Mass (kg)
RCS (m²)

Purposes: comms

External: N2YO · Heavens-Above · Gunter

§ Orbital elements

Epoch: 2026-05-25T03:26:29.296032Z

Period
93.91 min
Inclination
97.2860°
Eccentricity
0.0001175
Mean motion
15.33441488 rev/d
Perigee alt
464.7 km
Apogee alt
466.4 km
Semi-major
6,843.7 km
B*
2.5649e-4
RAAN
210.3140°
Arg perigee
355.7700°
Mean anomaly
4.3533°
Rev number
1,905

§ Raw data

STARLINK-366341 67593U 26018E   26145.14339463  .00008213  00000+0  25649-3 0  99902 67593  97.2860 210.3140 0001175 355.7700   4.3533 15.33441488 19050

JSON: /api/v1/satellites/67593 · /tle

For live sub-satellite position, see the globe view (requires WebGL).

§ Visibility from observer

Set your observer location to see the next 7 days of passes ≥ 10°. The values pass through the URL so the page stays shareable.

No JS? Fill the form by hand. The geolocation button needs JavaScript.